Fleming-Mason (FGX)

 

Airport Diagram
No Airport Diagram Available
Current Weather/Forecast (VFR Conditions)
METAR KFGX 071335Z AUTO 34009G15KT 10SM SCT016 09/04 A3005 RMK AO2 T00870036
TAF

Airport Information

All Charts
General
Chart Name View
TAKEOFF MINIMUMS
ALTERNATE MINIMUMS

Approaches
Chart Name Download
RNAV (GPS) RWY 07
RNAV (GPS) RWY 25
VOR/DME-A


Airport Statistics
Departures Arrivals Local
All Collected Stats since June 2016: 6 6 0
2021 Stats: 1 2 0
May Stats: 0 0 0

Inbound Traffic (Arrivals) - 0

No inbound traffic.


Outbound Traffic (Departures) - 0

No outbound traffic.


Local Traffic (Pattern) - 0

No local traffic.